#timestamp,LO_Frequency,Hit,StdDev 
1628146815.7,286047002.2,P
1628146835.5,286047001.5,N
1628146855.4,286047001.8,N
1628146875.2,286047004.4,Y
1628146895.0,286047001.6,P
1628146895.9,286047001.6,P
1628146915.8,286047001.9,P
1628146935.6,286047001.6,Y
1628146955.5,286047000.9,P
1628146975.3,286046998.3,P
1628146995.1,286046998.7,N
1628147015.9,286046999.2,N
1628147035.7,286046997.4,N
1628147055.5,286046996.9,N
1628147075.4,286046999.5,N
1628147095.2,286046997.4,N
1628147115.1,286046999.2,N
1628147116.0,286046999.2,N
1628147135.8,286046997.3,N
1628147155.6,286046998.8,N
1628147175.5,286046996.5,N
1628147195.3,286046998.7,N
1628147215.1,286046999.3,N
1628147235.9,286046999.3,N
1628147255.7,286046997.0,N
1628147275.6,286046999.2,N
1628147295.4,286046998.9,N
1628147315.2,286046999.3,N
1628147335.1,286046999.4,N
1628147336.0,286046999.4,N
1628147355.8,286046998.4,N
1628147375.6,286047001.2,N
1628147395.5,286046999.4,N
1628147415.3,286047001.0,N
1628147435.2,286046998.6,N
1628147455.9,286046998.5,N
1628147475.7,286046998.1,N
1628147495.6,286046998.4,N
1628147515.4,286046999.5,N
1628147535.3,286046999.6,N
1628147555.1,286046997.0,N
1628147556.0,286046997.0,N
1628147575.8,286046999.3,N
1628147595.7,286046996.9,N
1628147615.5,286046998.8,N
1628147635.4,286047000.7,N
1628147655.2,286047001.0,N
1628147675.0,286046999.7,N
1628147675.9,286046999.7,N
1628147695.8,286047002.4,N
1628147715.6,286047001.3,N
1628147735.4,286047003.6,N
1628147755.3,286047003.1,N
1628147775.1,286047005.4,Y
1628147795.9,286047005.4,P
1628147815.7,286047005.7,N
1628147835.5,286047007.6,N
1628147855.4,286047005.2,N
1628147875.2,286047011.9,Y
1628147895.0,286047002.0,P
1628147895.9,286047002.0,N
1628147915.8,286047002.6,N
1628147935.6,286047000.2,N
1628147955.5,286047000.3,N
1628147975.3,286047002.1,N
1628147995.1,286047002.7,N
1628148015.9,286047000.3,N
1628148035.7,286047002.0,N
1628148055.6,286047000.6,N
1628148075.4,286047001.0,N
1628148095.2,286047000.7,N
1628148115.1,286047000.7,N
1628148116.0,286047000.7,N
1628148135.8,286047000.5,N
1628148155.6,286046999.9,N
1628148175.5,286046998.3,N
1628148195.3,286046999.3,N
1628148215.1,286046999.3,N
1628148235.9,286046998.7,N
1628148255.7,286046998.3,N
1628148275.6,286046998.8,N
1628148295.4,286046998.5,N
1628148315.2,286046996.6,N
1628148335.1,286046997.4,N
1628148336.0,286046997.4,N
1628148355.8,286046997.3,N
1628148375.7,286046996.9,N
1628148395.5,286046997.3,N
1628148415.3,286046995.1,N
1628148435.2,286046993.5,Y
1628148455.0,286046995.6,P
1628148455.9,286046995.6,N
1628148475.8,286046993.5,P
1628148495.6,286046993.6,N
1628148515.4,286046986.3,Y
1628148535.3,286046997.8,P
1628148555.1,286046995.3,P
1628148575.8,286046995.3,P
1628148595.7,286046997.1,N
1628148615.5,286046997.9,N
1628148635.4,286046997.9,N
1628148655.2,286046996.4,Y
1628148675.0,286046999.5,P
1628148695.2,286046998.9,N
1628148715.0,286046998.3,N
1628148715.9,286046998.3,N
1628148735.8,286046998.7,N
1628148755.1,286047000.8,N
1628148756.0,286047000.8,N
1628148775.8,286047000.6,N
1628148795.6,286047000.7,N
1628148815.5,286046998.8,N
1628148835.3,286047001.2,N
1628148855.2,286047000.7,N
1628148875.9,286047002.5,N
1628148895.7,286046998.5,N
1628148915.6,286047000.9,N
1628148935.4,286047000.1,N
1628148955.3,286047000.1,N
1628148975.1,286047004.0,N
1628148976.0,286047004.0,N
1628148995.8,286047001.3,N
1628149015.7,286047001.4,N
1628149035.5,286047002.1,N
1628149055.3,286047002.0,N
1628149075.2,286047002.1,N
1628149095.0,286047002.1,N
1628149095.9,286047002.1,N
1628149115.8,286047002.8,N
1628149135.6,286046999.8,N
1628149155.4,286047001.2,N
1628149175.3,286047002.1,N
1628149195.1,286047002.8,N
1628149215.9,286047000.0,N
1628149235.7,286047002.5,N
1628149255.5,286047002.6,N
1628149275.4,286047002.1,N
1628149295.2,286047002.3,N
1628149315.0,286047000.1,N
1628149315.9,286047000.1,N
1628149335.8,286047000.9,N
1628149355.6,286047002.8,N
1628149375.5,286047002.3,N
1628149395.3,286047000.6,N
1628149415.1,286046998.5,N
1628149435.9,286046998.7,N
1628149455.7,286047002.7,N
1628149475.5,286047002.5,N
1628149495.4,286047002.5,N
1628149515.2,286047002.4,N
1628149535.1,286047003.7,N
1628149536.0,286047003.7,N
1628149555.8,286047003.8,N
1628149575.6,286047001.3,N
1628149595.5,286047004.3,Y
1628149615.3,286047002.1,P
1628149635.1,286047002.3,P
1628149655.9,286047002.6,P
1628149675.7,286047002.6,Y
1628149695.6,286047001.2,P
1628149715.4,286046998.8,N
1628149735.2,286047001.2,N
1628149755.1,286046999.4,N
1628149756.0,286046999.4,N
1628149775.8,286046999.3,N
1628149795.6,286046999.5,N
1628149815.5,286046998.8,N
1628149835.3,286046997.2,N
1628149855.2,286046997.4,N
1628149875.9,286046997.3,N
1628149895.7,286046995.1,Y
1628149915.6,286046997.1,P
1628149935.4,286046999.1,N
1628149955.2,286046998.7,N
1628149975.1,286047000.8,N
1628149976.0,286047000.8,N
1628149995.8,286046999.8,N
1628150015.7,286047002.7,N
1628150035.5,286046999.7,N
1628150055.3,286046999.8,N
1628150075.2,286047002.0,N
1628150095.0,286047001.9,N
1628150095.9,286047001.9,N
1628150115.8,286047002.5,N
1628150135.6,286047001.9,N
1628150155.4,286046999.7,N
1628150175.3,286047000.2,N
1628150195.1,286047002.7,N
1628150215.8,286047004.4,N
1628150235.7,286047004.4,N
1628150255.5,286047000.0,N
1628150275.4,286047000.1,N
1628150295.2,286047000.8,N
1628150315.0,286046999.8,N
1628150315.9,286046999.8,N
1628150335.8,286047000.6,N
1628150355.6,286047000.5,N
1628150375.6,286046998.6,N
1628150395.4,286046998.1,N
